Kingman, AZ

4:59 PM MST on June 22, 2017 (GMT -0700)
Kingman

Weather History for KIGM - April, 2014

Change the Weather History Date:

Sunday, April 13, 2014

  Actual Average Record
Temperature  
Mean Temperature 66 °F 58 °F  
Max Temperature 81 °F 73 °F 91 °F (1936)
Min Temperature 50 °F 43 °F 28 °F (1975)
Degree Days  
Heating Degree Days 0 8  
Month to date heating degree days 93 121  
Since 1 July heating degree days 2721 2952  
Cooling Degree Days 1 1  
Month to date cooling degree days 15 6  
Year to date cooling degree days 15 9  
Growing Degree Days 17 (Base 50)    
Moisture  
Dew Point 13 °F    
Average Humidity 17    
Maximum Humidity 28    
Minimum Humidity 5    
Precipitation  
Precipitation 0.00 in 0.02 in 1.62 in (1912)
Month to date precipitation T 0.22  
Year to date precipitation 0.55 3.14  
Sea Level Pressure  
Sea Level Pressure 29.73 in    
Wind  
Wind Speed 13 mph (NW)    
Max Wind Speed 35 mph    
Max Gust Speed 42 mph    
Visibility 10 miles    
Events      
T = Trace of Precipitation, MM = Missing Value Source: NWS Daily Summary

Daily Weather History Graph

Daily Weather History Graph

Search for Another Location

Airport or City:

Trip Planner

Search our weather history database for the weather conditions in past years. The results will help you decide how hot, cold, wet, or windy it might be!

Date:

Astronomy

Apr. 13, 2014 Rise Set
Actual Time 6:06 AM MST 7:07 PM MST
Civil Twilight 5:39 AM MST 7:33 PM MST
Nautical Twilight 5:09 AM MST 8:04 PM MST
Astronomical Twilight 4:37 AM MST 8:36 PM MST
Moon 5:51 PM MST (4/13) 5:03 AM MST (4/13)
Length of Visible Light 13h 53m
Length of Day
13h 01m
Waxing Gibbous, 97% of the Moon is Illuminated
Apr 13
Waxing Gibbous
Apr 15
Full
Apr 22
Last Quarter
Apr 28
New
May 6
First Quarter

Hourly Weather History & Observations

Time (MST) Temp. Dew Point Humidity Pressure Visibility Wind Dir Wind Speed Gust Speed Precip Events Conditions
12:51 AM 64.9 °F 19.0 °F 17% 29.59 in 10.0 mi South 8.1 mph - N/A   Clear
1:51 AM 62.1 °F 19.0 °F 19% 29.60 in 10.0 mi Variable 4.6 mph - N/A   Clear
2:51 AM 54.0 °F 19.0 °F 25% 29.61 in 10.0 mi SE 6.9 mph - N/A   Clear
3:51 AM 57.2 °F 19.4 °F 23% 29.78 in 10.0 mi Calm Calm - N/A   Clear
4:51 AM 57.9 °F 23.0 °F 26% 29.60 in 10.0 mi Variable 3.5 mph - N/A   Clear
5:51 AM 55.9 °F 23.0 °F 28% 29.63 in 10.0 mi ESE 3.5 mph - N/A   Clear
6:51 AM 57.0 °F 24.1 °F 28% 29.67 in 10.0 mi ENE 6.9 mph - N/A   Clear
7:51 AM 63.0 °F 27.0 °F 26% 29.69 in 10.0 mi South 6.9 mph - N/A   Clear
8:51 AM 69.1 °F 30.0 °F 23% 29.69 in 10.0 mi WSW 18.4 mph - N/A   Clear
9:51 AM 71.1 °F 28.9 °F 21% 29.71 in 10.0 mi WSW 13.8 mph 20.7 mph N/A   Clear
10:51 AM 73.0 °F 28.9 °F 20% 29.70 in 10.0 mi West 11.5 mph - N/A   Clear
11:51 AM 75.9 °F 26.1 °F 16% 29.70 in 10.0 mi WNW 19.6 mph 24.2 mph N/A   Clear
12:51 PM 79.0 °F 19.0 °F 11% 29.67 in 10.0 mi WNW 21.9 mph 34.5 mph N/A   Clear
1:51 PM 78.8 °F 15.8 °F 9% 29.86 in 10.0 mi West 18.4 mph 28.8 mph N/A   Clear
2:51 PM 80.1 °F 16.0 °F 9% 29.68 in 10.0 mi WNW 26.5 mph 36.8 mph N/A   Clear
3:51 PM 80.1 °F 8.1 °F 6% 29.67 in 10.0 mi NW 16.1 mph 32.2 mph N/A   Clear
4:51 PM 75.0 °F -0.9 °F 5% 29.70 in 10.0 mi NNW 26.5 mph 38.0 mph N/A   Clear
5:51 PM 72.0 °F -6.0 °F 4% 29.74 in 10.0 mi NNW 27.6 mph 34.5 mph N/A   Clear
6:51 PM 68.0 °F -8.0 °F 5% 29.77 in 9.0 mi North 20.7 mph 25.3 mph N/A   Clear
7:51 PM 63.0 °F -8.0 °F 6% 29.80 in 10.0 mi North 16.1 mph - N/A   Clear
8:51 PM 63.0 °F -7.1 °F 6% 29.81 in 10.0 mi NNW 18.4 mph - N/A   Clear
9:51 PM 57.9 °F -5.1 °F 8% 29.86 in 10.0 mi North 12.7 mph - N/A   Clear
10:51 PM 55.4 °F -2.2 °F 9% 30.05 in 10.0 mi NNE 8.1 mph - N/A   Clear
11:51 PM 51.1 °F 3.0 °F 14% 29.92 in 10.0 mi NE 4.6 mph - N/A   Clear